Location: Calvatone
(45.1167°N, 10.4333°E)
Time: 15:52:44
(UTC+00:00)

BlueWalker 3 - Pass Details

Date: 09 June 2023
Orbit: 491 x 508 km, 53.2° (Epoch: 28 September)

Event Time Altitude Azimuth Distance (km) Brightness Sun altitude
Rises 22:26:46 0° 300° (WNW) 2,585 6.2 -20.9°
Reaches altitude 10° 22:28:59 10° 295° (WNW) 1,703 5.1 -21.0°
Enters shadow 22:32:10 45° 250° (WSW) 687 2.5 -21.1°
